sat.trackr.live / text

‹ back to catalog

STARLINK-37469

NORAD 69168 · 2026-111W

PAYLOAD ACTIVE UNKNOWN

§ Identity

Operator
Country
US
Launch date
2026-05-21
Launch site
AFETR
Launch vehicle
Mass (kg)
RCS (m²)

Purposes: comms

External: N2YO · Heavens-Above · Gunter

§ Orbital elements

Epoch: 2026-09-19T19:18:56.411712Z

Period
93.85 min
Inclination
53.1590°
Eccentricity
0.0001156
Mean motion
15.34399241 rev/d
Perigee alt
461.9 km
Apogee alt
463.5 km
Semi-major
6,840.8 km
B*
6.1637e-4
RAAN
68.8829°
Arg perigee
81.5281°
Mean anomaly
278.5853°
Rev number
1,879

§ Raw data

STARLINK-374691 69168U 26111W   26262.80481958  .00020505  00000+0  61637-3 0  99992 69168  53.1590  68.8829 0001156  81.5281 278.5853 15.34399241 18798

JSON: /api/v1/satellites/69168 · /tle

For live sub-satellite position, see the globe view (requires WebGL).

§ Visibility from observer

Set your observer location to see the next 7 days of passes ≥ 10°. The values pass through the URL so the page stays shareable.

No JS? Fill the form by hand. The geolocation button needs JavaScript.